Weather History for Hot Springs, VA

Change the Weather History Date:

Saturday, October 6, 2012

  Actual Average Record
Temperature  
Mean Temperature 50 °F -  
Max Temperature 60 °F 59 °F 78 °F (1997)
Min Temperature 39 °F 45 °F 35 °F (1996)
Degree Days  
Heating Degree Days 16    
Moisture  
Dew Point 46 °F    
Average Humidity 82    
Maximum Humidity 100    
Minimum Humidity 67    
Precipitation  
Precipitation 0.00 in - - ()
Sea Level Pressure  
Sea Level Pressure 30.05 in    
Wind  
Wind Speed 14 mph (West)    
Max Wind Speed 24 mph    
Max Gust Speed 34 mph    
Visibility 10 miles    
Events      
Averages and records for this station are not official NWS values.
T = Trace of Precipitation, MM = Missing Value Source: NWS Daily Summary

Daily Weather History Graph

Daily Weather History Graph

Search for Another Location

Airport:

Trip Planner

Search our weather history database for the weather conditions in past years. The results will help you decide how hot, cold, wet, or windy it might be!

Date:

Astronomy

Oct. 06, 2012 Rise Set
Actual Time 7:19 AM EDT 6:54 PM EDT
Civil Twilight 6:53 AM EDT 7:20 PM EDT
Nautical Twilight 6:23 AM EDT 7:50 PM EDT
Astronomical Twilight 5:52 AM EDT 8:21 PM EDT
Moon 11:12 PM EDT (10/6) 1:08 PM EDT (10/6)
Length of Visible Light 12h 26m
Length of Day
11h 34m
Waning Gibbous, 65% of the Moon is Illuminated
Oct 6
Waning Gibbous
Oct 8
Last Quarter
Oct 15
New
Oct 21
First Quarter
Oct 29
Full

Hourly Weather History & Observations

Time (EDT) Temp. Windchill Dew Point Humidity Pressure Visibility Wind Dir Wind Speed Gust Speed Precip Events Conditions
12:18 AM 59.0 °F - 51.8 °F 77% 30.11 in 10.0 mi SW 8.1 mph - N/A   Clear
12:37 AM 60.8 °F - 51.8 °F 72% 30.10 in 10.0 mi SW 10.4 mph - N/A   Clear
12:58 AM 57.2 °F - 50.0 °F 77% 30.10 in 10.0 mi SW 8.1 mph - N/A   Clear
1:18 AM 57.2 °F - 48.2 °F 72% 30.09 in 10.0 mi SW 8.1 mph - N/A   Clear
1:37 AM 57.2 °F - 50.0 °F 77% 30.08 in 10.0 mi SW 12.7 mph - N/A   Clear
1:57 AM 57.2 °F - 50.0 °F 77% 30.08 in 10.0 mi SW 10.4 mph - N/A   Clear
2:18 AM 57.2 °F - 50.0 °F 77% 30.07 in 10.0 mi SW 12.7 mph - N/A   Clear
2:38 AM 57.2 °F - 50.0 °F 77% 30.06 in 10.0 mi WSW 12.7 mph 20.7 mph N/A   Clear
2:57 AM 55.4 °F - 50.0 °F 82% 30.06 in 10.0 mi WSW 15.0 mph - N/A   Clear
3:17 AM 57.2 °F - 50.0 °F 77% 30.05 in 10.0 mi WSW 16.1 mph - N/A   Scattered Clouds
3:37 AM 57.2 °F - 50.0 °F 77% 30.04 in 10.0 mi WSW 15.0 mph - N/A   Scattered Clouds
3:58 AM 55.4 °F - 50.0 °F 82% 30.03 in 10.0 mi WSW 17.3 mph - N/A   Clear
4:18 AM 57.2 °F - 50.0 °F 77% 30.03 in 10.0 mi WSW 20.7 mph 25.3 mph N/A   Scattered Clouds
4:38 AM 55.4 °F - 50.0 °F 82% 30.03 in 10.0 mi WSW 18.4 mph - N/A   Scattered Clouds
4:58 AM 57.2 °F - 51.8 °F 82% 30.03 in 10.0 mi West 20.7 mph 25.3 mph N/A   Scattered Clouds
5:37 AM 55.4 °F - 51.8 °F 88% 30.02 in 10.0 mi West 20.7 mph 26.5 mph N/A   Clear
5:58 AM 55.4 °F - 51.8 °F 88% 30.02 in 10.0 mi West 19.6 mph - N/A   Clear
6:38 AM 55.4 °F - 51.8 °F 88% 30.01 in 10.0 mi West 18.4 mph - N/A   Clear
6:58 AM 55.4 °F - 51.8 °F 88% 30.01 in 10.0 mi West 18.4 mph 23.0 mph N/A   Scattered Clouds
7:17 AM 55.4 °F - 51.8 °F 88% 30.01 in 10.0 mi West 16.1 mph 24.2 mph N/A   Scattered Clouds
7:37 AM 55.4 °F - 51.8 °F 88% 30.01 in 10.0 mi West 17.3 mph 26.5 mph N/A   Clear
7:57 AM 55.4 °F - 51.8 °F 88% 30.01 in 10.0 mi West 20.7 mph 26.5 mph N/A   Clear
8:18 AM 55.4 °F - 51.8 °F 88% 30.01 in 10.0 mi West 19.6 mph 24.2 mph N/A   Mostly Cloudy
8:38 AM 55.4 °F - 51.8 °F 88% 30.01 in 10.0 mi West 17.3 mph 26.5 mph N/A   Mostly Cloudy
8:58 AM 57.2 °F - 51.8 °F 82% 30.02 in 10.0 mi West 17.3 mph 28.8 mph N/A   Clear
9:18 AM 57.2 °F - 53.6 °F 88% 30.01 in 10.0 mi West 17.3 mph 24.2 mph N/A   Scattered Clouds
9:38 AM 55.4 °F - 51.8 °F 88% 30.01 in 10.0 mi West 16.1 mph 24.2 mph N/A   Mostly Cloudy
9:57 AM 55.4 °F - 53.6 °F 94% 30.01 in 10.0 mi West 18.4 mph 24.2 mph N/A   Overcast
10:17 AM 55.4 °F - 53.6 °F 94% 30.01 in 10.0 mi West 18.4 mph 25.3 mph N/A   Overcast
10:37 AM 55.4 °F - 53.6 °F 94% 30.01 in 10.0 mi West 17.3 mph 23.0 mph N/A   Overcast
10:57 AM 55.4 °F - 53.6 °F 94% 30.01 in 10.0 mi WNW 19.6 mph 27.6 mph N/A   Overcast
11:17 AM 55.4 °F - 53.6 °F 94% 30.01 in 10.0 mi West 20.7 mph 28.8 mph N/A   Overcast
11:39 AM 53.6 °F - 53.6 °F 100% 30.01 in 10.0 mi West 24.2 mph 34.5 mph N/A   Overcast
11:58 AM 53.6 °F - 51.8 °F 94% 30.02 in 7.0 mi West 23.0 mph 29.9 mph N/A   Overcast
12:17 PM 51.8 °F - 51.8 °F 100% 30.03 in 10.0 mi West 21.9 mph 28.8 mph N/A   Overcast
12:37 PM 51.8 °F - 50.0 °F 94% 30.03 in 10.0 mi West 19.6 mph 27.6 mph N/A   Overcast
12:59 PM 53.6 °F - 51.8 °F 94% 30.03 in 10.0 mi West 19.6 mph 28.8 mph N/A   Overcast
1:18 PM 53.6 °F - 48.2 °F 82% 30.03 in 10.0 mi West 20.7 mph 27.6 mph N/A   Overcast
1:38 PM 55.4 °F - 48.2 °F 77% 30.03 in 10.0 mi West 15.0 mph 26.5 mph N/A   Overcast
1:57 PM 53.6 °F - 46.4 °F 77% 30.03 in 10.0 mi West 17.3 mph - N/A   Overcast
2:17 PM 53.6 °F - 46.4 °F 77% 30.03 in 10.0 mi West 16.1 mph 23.0 mph N/A   Overcast
2:37 PM 55.4 °F - 46.4 °F 72% 30.03 in 10.0 mi West 19.6 mph 27.6 mph N/A   Mostly Cloudy
2:57 PM 55.4 °F - 44.6 °F 67% 30.03 in 10.0 mi WNW 17.3 mph 23.0 mph N/A   Scattered Clouds
3:17 PM 55.4 °F - 44.6 °F 67% 30.03 in 10.0 mi WNW 13.8 mph 24.2 mph N/A   Scattered Clouds
3:37 PM 53.6 °F - 44.6 °F 72% 30.03 in 10.0 mi West 13.8 mph 19.6 mph N/A   Clear
3:57 PM 53.6 °F - 42.8 °F 67% 30.04 in 10.0 mi West 11.5 mph 16.1 mph N/A   Clear
4:17 PM 53.6 °F - 42.8 °F 67% 30.04 in 10.0 mi WNW 9.2 mph - N/A   Clear
4:38 PM 53.6 °F - 42.8 °F 67% 30.04 in 10.0 mi West 10.4 mph - N/A   Clear
4:58 PM 51.8 °F - 42.8 °F 71% 30.04 in 10.0 mi NW 5.8 mph - N/A   Clear
5:18 PM 51.8 °F - 42.8 °F 71% 30.05 in 10.0 mi NW 9.2 mph - N/A   Scattered Clouds
5:37 PM 51.8 °F - 41.0 °F 67% 30.05 in 10.0 mi NW 9.2 mph - N/A   Clear
5:58 PM 50.0 °F - 42.8 °F 76% 30.05 in 10.0 mi NW 5.8 mph - N/A   Clear
6:17 PM 48.2 °F - 41.0 °F 76% 30.06 in 10.0 mi NW 8.1 mph - N/A   Clear
6:37 PM 46.4 °F 42.9 °F 39.2 °F 76% 30.06 in 10.0 mi WNW 6.9 mph - N/A   Clear
7:17 PM 44.6 °F 40.2 °F 37.4 °F 76% 30.08 in 10.0 mi NW 8.1 mph - N/A   Clear
7:37 PM 42.8 °F 38.0 °F 37.4 °F 81% 30.09 in 10.0 mi NNW 8.1 mph - N/A   Clear
7:59 PM 42.8 °F 38.0 °F 37.4 °F 81% 30.10 in 10.0 mi NW 8.1 mph - N/A   Clear
8:18 PM 42.8 °F 36.2 °F 37.4 °F 81% 30.12 in 10.0 mi WNW 12.7 mph - N/A   Clear
8:37 PM 42.8 °F 38.6 °F 37.4 °F 81% 30.12 in 10.0 mi WNW 6.9 mph - N/A   Clear
8:57 PM 41.0 °F 35.8 °F 37.4 °F 87% 30.12 in 10.0 mi WNW 8.1 mph - N/A   Clear
9:17 PM 41.0 °F 33.9 °F 37.4 °F 87% 30.13 in 10.0 mi West 12.7 mph - N/A   Clear
9:37 PM 39.2 °F 31.6 °F 37.4 °F 93% 30.12 in 10.0 mi West 12.7 mph - N/A   Clear
9:59 PM 39.2 °F 37.0 °F 37.4 °F 93% 30.13 in 10.0 mi NW 3.5 mph 9.2 mph N/A   Clear
10:18 PM 41.0 °F 34.7 °F 35.6 °F 81% 30.14 in 10.0 mi NW 10.4 mph - N/A   Clear
10:38 PM 39.2 °F 32.5 °F 37.4 °F 93% 30.13 in 10.0 mi WNW 10.4 mph - N/A   Clear
10:59 PM 39.2 °F 32.5 °F 37.4 °F 93% 30.12 in 10.0 mi NW 10.4 mph - N/A   Clear
11:19 PM 39.2 °F 32.0 °F 35.6 °F 87% 30.11 in 10.0 mi NW 11.5 mph - N/A   Clear
11:39 PM 39.2 °F 31.2 °F 35.6 °F 87% 30.08 in 10.0 mi NW 13.8 mph - N/A   Clear
11:59 PM 39.2 °F 32.5 °F 35.6 °F 87% 30.09 in 10.0 mi NW 10.4 mph - N/A   Clear